SL-8 R/B

Satellite information

Favourite Embed

Satellite Type and Status

ROCKET BODYIN ORBIT

Key statistics

Satellite SL-8 R/B at a glance.

Uptime

16889

Days in orbit

Revolutions

≈ 13.8

Per day

Orbit

LEO

Low Earth Orbit

Inclination

83.0

Latest

Satellite identification and parameters

Extended collection of information and parameters for SL-8 R/B.

Object identification

Identified? True

Debris? False

Object name: SL-8 R/B

International designator: 1979-030B

Object number (NORAD): 11327

Object ID (CCSDS): 11327

Country: COMMONWEALTH OF INDEPENDENT STATES (CIS)

Current information (Y/N): Y

RCS size: LARGE

Orbital parameters

Period: 104.561 minutes

Inclination: 82.9501 deg

SMA: 7352.035 km

Apoapsis: 993.522 km

Periapsis: 954.277 km

RAAN: 271.6725 deg

Eccentricy: 0.002669

Argument of periapsis: 222.2701 deg

Mean anomaly: 255.9883 deg

Mean motion: 13.77182354 rev/day

Mean motion (dot): 0.00000038 rev/day2

B* drag term: 0.000022958 1/REarth

Two-line elements (TLE)

Creation date: July 6, 2025, 10:56 p.m.

Reference frame: TEME

Reference center: EARTH

Epoch: July 6, 2025, 6:28 p.m. UTC

TLE line 0: 0 SL-8 R/B

TLE line 1: 1 11327U 79030B 25187.76984973 .00000038 00000-0 22958-4 0 9990

TLE line 2: 2 11327 82.9501 271.6725 0026690 222.2701 255.9883 13.77182354323964

Live tracking on map

Real-time ground track for satellite SL-8 R/B.

In-orbit conjunctions

A list of the most updated potential collisions computed for object SL-8 R/B.

Target Orbit TCA Probability of collision Miss distance Type
DELTA 1 DEB SSO 2025-02-15 03:03:15 0.0003197937 471.0 (m) DEBRIS
SL-16 DEB LEO 2024-08-22 23:23:57 0.0002331298 120.0 (m) DEBRIS

Associated space launch

Civilian navigation satellite equivalent to the purely military Parus

SL-8 R/B was lifted into orbit during the mission ‘Kosmos-3M | Tsikada 5’, on board a Kosmos-3M space rocket.

The launch took place on April 11, 1979, 9:51 p.m. from 132/1 (132L).

For more information about the launch, click the button.

Launch to space Kosmos-3M | Tsikada 5
Kosmos-3M | Tsikada 5

Agency: N/A

Status: Launch Successful

Launch date: April 11, 1979, 9:51 p.m. UTC

Rocket: Kosmos-3M

Launch pad: 132/1 (132L)

Location: Plesetsk Cosmodrome, Russian Federation

...

Latest news about this satellite

There are no fresh news available about this satellite. Check back as we update our databases every day.


Newsletter sign-up

Weekly statistics, charts and insights to help you stay on top of the space industry.